Regional Weather Roundup
Issued by NWS Goodland, KS

Home | Current Version | Previous Version | Text Only | Print | Product List | Glossary Off
Versions: 1 2 3 4 5 6 7 8 9 10 11 12 13 14 15 16 17 18 19 20 21 22 23 24 25 26 27 28 29 30 31 32 33 34 35 36 37 38 39 40 41 42 43 44 45 46 47 48 49 50

000
ASUS43 KGLD 160359
RWRGLD

GOODLAND FORECAST AREA HOURLY WEATHER ROUNDUP
NATIONAL WEATHER SERVICE GOODLAND KS
1000 PM MDT MON SEP 15 2014

...OFFICIAL OBSERVATIONS...

CITY           SKY/WX    TMP DP  RH WIND       PRES   REMARKS
GOODLAND KS    CLEAR     53  50  89 S7        30.29S
HILL CITY KS   CLEAR     50  43  77 NE5       30.27R
IMPERIAL NEB   CLEAR     50  44  80 SE8       30.25S
MCCOOK NEB     CLEAR     52  43  71 SE6       30.27R
AKRON CO       CLEAR     54  50  86 S17G24    30.25S
BURLINGTON CO  CLOUDY    57  51  80 S9        30.29F
LIMON CO       NOT AVBL
$$

...UNOFFICIAL OBSERVATIONS...

CITY           SKY/WX    TMP DP  RH WIND       PRES   REMARKS
COLBY KS       CLEAR     52  48  87 SE6       30.29S
GOVE KS          N/A     54  32  43 MISG        N/A
NORTON KS      CLEAR     48  39  71 CALM      30.26S
SHARON SPRINGS   N/A     54  51  90 S5          N/A
WAKEENEY KS      N/A     53  43  68 MISG        N/A
TRENTON NEB      N/A     52  32  46 SE9         N/A
YUMA CO          N/A     53  49  87 CALM        N/A
$$



USA.gov is the U.S. government's official web portal to all federal, state and local government web resources and services.